Location: Grand Moustoir
(47.8355°N, 3.3120°W)
Time: 22:51:58
(UTC+00:00)

NOSS 3-2 (C) - Pass Details

Date: 20 January 2020
Orbit: 813 x 1399 km, 63.4° (Epoch: 10 February)

Event Time Altitude Azimuth Distance (km) Brightness Sun altitude
Exits shadow 05:40:38 23° 323° (NW) 2,280 5.0 -22.0°
Maximum altitude 05:45:44 78° 47° (NE) 1,289 4.1 -21.2°
Drops below altitude 10° 05:54:07 10° 135° (SE) 3,406 7.1 -19.8°
Sets 05:57:06 0° 137° (SE) 4,415 7.8 -19.3°
